Location: Ariel
(45.9570°N, 122.5700°W)
Time: 13:43:24
(UTC-07:00)

Tiros 1 - Pass Details

Date: 27 July 2019
Orbit: 630 x 664 km, 48.4° (Epoch: 18 August)

Event Time Altitude Azimuth Distance (km) Brightness Sun altitude
Rises 09:32:10 0° 190° (S) 2,956 10.6 37.0°
Reaches altitude 10° 09:35:29 10° 166° (SSE) 2,057 10.1 37.5°
Maximum altitude 09:37:59 14° 134° (SE) 1,797 10.4 38.0°
Drops below altitude 10° 09:40:29 10° 102° (ESE) 2,073 11.0 38.4°
Sets 09:43:50 0° 78° (ENE) 2,994 11.3 39.0°
